Date,TemperatureHighF,TemperatureAvgF,TemperatureLowF,DewpointHighF,DewpointAvgF,DewpointLowF,HumidityHigh,HumidityAvg,HumidityLow,PressureMaxIn,PressureMinIn,WindSpeedMaxMPH,WindSpeedAvgMPH,GustSpeedMaxMPH,PrecipitationSumIn
2013-8-1,68.8,62.4,57.9,59.0,56.5,55.0,89,81,70,30.15,29.96,9,3,18,0.00
2013-8-2,71.5,63.7,58.8,57.0,54.9,52.0,88,74,53,30.00,29.80,13,4,22,0.00
2013-8-3,69.1,64.1,58.8,57.0,52.7,49.0,88,68,51,29.88,29.75,13,4,27,0.00
2013-8-4,66.3,61.6,58.2,55.0,52.7,50.0,85,73,58,29.96,29.88,9,4,13,0.00
2013-8-5,66.9,61.2,56.5,55.0,52.8,49.0,93,75,55,29.98,29.94,13,4,19,0.00
2013-8-6,68.6,61.3,56.8,55.0,53.0,51.0,89,75,58,29.96,29.90,10,3,11,0.03
2013-8-7,61.2,58.6,56.5,57.0,55.2,54.0,93,88,78,29.90,29.75,7,1,9,0.14
2013-8-8,63.0,58.1,55.6,57.0,53.1,49.0,95,84,69,29.82,29.73,16,5,26,0.02
2013-8-9,56.4,54.2,51.4,54.0,51.7,48.0,96,91,75,29.82,29.73,12,6,14,0.46
2013-8-10,59.8,55.5,53.2,56.0,48.4,-99.9,96,87,80,29.99,29.76,9,-9,11,0.08
2013-8-11,57.5,55.9,53.4,56.0,54.7,52.0,97,95,89,30.03,29.99,9,3,12,0.51
2013-8-12,68.4,59.4,55.0,61.0,57.0,55.0,98,92,76,30.06,30.01,11,4,12,0.36
2013-8-13,68.8,60.3,56.8,59.0,56.8,53.0,98,88,68,30.02,29.96,13,4,18,0.00
2013-8-14,61.0,57.1,55.1,53.0,51.6,51.0,89,82,71,30.04,29.90,11,3,14,0.00
2013-8-15,64.0,58.2,53.6,53.0,51.6,49.0,91,79,62,29.90,29.76,10,3,13,0.00
2013-8-16,59.3,56.3,52.8,56.0,52.6,49.0,92,87,82,29.76,29.65,6,1,8,0.08
2013-8-17,67.5,58.7,53.6,57.0,54.4,52.0,97,86,63,29.66,29.50,9,3,10,0.03
2013-8-18,60.7,57.7,55.0,58.0,54.3,-99.9,97,92,88,29.64,29.48,5,1,9,0.02
2013-8-19,58.3,55.7,54.1,57.0,54.1,53.0,96,94,90,29.75,29.65,8,2,9,0.32
2013-8-20,59.6,56.0,52.4,55.0,52.6,50.0,96,88,74,29.85,29.75,14,3,18,0.02
2013-8-21,58.0,54.9,53.3,54.0,52.1,50.0,96,90,74,29.86,29.76,7,2,12,0.12
2013-8-22,55.6,53.6,51.3,54.0,52.4,50.0,97,95,92,29.76,29.69,8,2,8,0.43
2013-8-23,64.0,57.7,53.1,56.0,53.5,51.0,97,86,68,29.69,29.52,14,3,16,0.00
2013-8-24,71.1,59.1,50.6,55.0,49.3,42.0,97,73,39,29.69,29.56,15,4,15,0.01
2013-8-25,64.1,56.1,46.0,51.0,43.9,40.0,84,65,49,29.74,29.68,10,3,14,0.00
2013-8-26,64.6,56.6,47.4,53.0,48.9,44.0,92,76,59,29.76,29.71,7,2,11,0.00
2013-8-27,62.9,56.6,50.9,55.0,50.3,47.0,88,79,66,29.80,29.72,10,2,12,0.00
2013-8-28,59.9,56.9,53.2,54.0,50.6,47.0,95,80,65,29.73,29.56,14,4,16,0.24
2013-8-29,56.6,53.5,51.1,55.0,50.2,-99.9,95,92,91,29.87,29.54,11,5,15,0.03
2013-8-30,60.3,56.1,52.6,56.0,53.6,52.0,98,91,80,29.97,29.87,7,2,10,0.00
2013-8-31,58.2,55.4,53.3,54.0,52.4,51.0,93,89,78,29.93,29.83,8,2,13,0.01